Location: Unspecified
(0.0000°N, 0.0000°E)
Time: 11:52:29
(UTC+00:00)

deb Explorer IX - All Passes

Search period start: 01 March 2024 00:00
Search period end: 11 March 2024 00:00
Orbit: 516 x 916 km, 38.7° (Epoch: 29 February)

Date Brightness Start Highest point End Pass type
(mag) Time Alt. Az. Time Alt. Az. Time Alt. Az.
01 Mar - 03:42:09 10° SSW 03:46:10 30° SE 03:50:36 10° ENE visible
01 Mar - 05:26:15 10° WSW 05:30:38 32° NW 05:35:31 10° NNE visible
01 Mar - 14:25:15 10° NNE 14:27:02 11° NE 14:28:45 10° NE daylight
01 Mar - 16:06:28 10° NW 16:12:07 70° NE 16:17:06 10° SE daylight
01 Mar - 17:53:36 10° WSW 17:56:29 15° SW 17:59:13 10° S daylight
02 Mar - 02:47:36 10° S 02:50:15 16° SE 02:53:05 10° E visible
02 Mar - 04:30:01 10° WSW 04:34:33 58° NW 04:39:43 10° NE visible
02 Mar - 15:10:31 10° NNW 15:15:58 40° NE 15:20:55 10° ESE daylight
02 Mar - 16:55:51 10° W 17:00:31 28° SW 17:04:45 10° SSE daylight
03 Mar - 03:34:10 10° SW 03:38:35 74° SE 03:43:32 10° NE visible
03 Mar - 05:20:39 10° WNW 05:23:20 14° NW 05:26:09 10° N visible
03 Mar - 14:14:56 10° NNW 14:19:43 24° NE 14:24:11 10° E daylight
03 Mar - 15:58:53 10° WNW 16:04:29 53° SW 16:09:30 10° SE daylight
04 Mar - 02:38:45 10° SSW 02:42:40 35° SE 02:46:58 10° ENE night (unlit)
04 Mar - 04:23:23 10° W 04:27:07 24° NW 04:31:11 10° NNE visible
04 Mar - 13:19:58 10° N 13:23:22 15° NE 13:26:38 10° ENE daylight
04 Mar - 15:02:23 10° NW 15:08:22 87° NE 15:13:46 10° SE daylight
04 Mar - 16:50:13 10° WSW 16:52:52 14° SW 16:55:23 10° SSW daylight
05 Mar - 01:43:54 10° S 01:46:45 18° SE 01:49:45 10° E night (unlit)
05 Mar - 03:26:53 10° WSW 03:31:01 43° NW 03:35:36 10° NNE visible
05 Mar - 14:06:14 10° NW 14:12:09 51° NE 14:17:36 10° ESE daylight
05 Mar - 15:52:03 10° W 15:56:44 25° SW 16:01:04 10° SSE daylight
06 Mar - 02:30:51 10° SW 02:35:00 86° NW 02:39:36 10° NE night (unlit)
06 Mar - 13:10:27 10° NNW 13:15:50 31° NE 13:20:56 10° E daylight
06 Mar - 14:54:51 10° WNW 15:00:35 45° SW 15:05:50 10° SSE daylight
07 Mar - 01:35:12 10° SSW 01:39:04 44° SE 01:43:13 10° ENE night (unlit)
07 Mar - 03:20:35 10° W 03:23:30 18° NW 03:26:37 10° N night (unlit)
07 Mar - 12:15:09 10° N 12:19:26 19° NE 12:23:36 10° E daylight
07 Mar - 13:58:10 10° NW 14:04:22 78° SW 14:10:06 10° SE daylight
07 Mar - 15:46:44 10° WSW 15:49:00 12° SW 15:51:12 10° SSW daylight
08 Mar - 00:40:03 10° S 00:43:07 21° SE 00:46:18 10° E night (unlit)
08 Mar - 02:23:41 10° WSW 02:27:22 31° NW 02:31:21 10° NNE night (unlit)
08 Mar - 11:21:07 10° NNE 11:22:56 11° NE 11:24:44 10° NE daylight
08 Mar - 13:01:52 10° NW 13:08:03 62° NE 13:13:55 10° ESE daylight
08 Mar - 14:48:07 10° W 14:52:44 22° SW 14:57:05 10° S daylight
08 Mar - 23:46:30 10° SSE 23:47:05 10° SE 23:47:40 10° SE night (unlit)
09 Mar - 01:27:22 10° WSW 01:31:19 65° NW 01:35:33 10° NE night (unlit)
09 Mar - 12:05:56 10° NNW 12:11:41 37° NE 12:17:17 10° ESE daylight
09 Mar - 13:50:43 10° WNW 13:56:26 38° SW 14:01:51 10° SSE daylight
10 Mar - 00:31:29 10° SW 00:35:21 57° SE 00:39:23 10° ENE night (unlit)
10 Mar - 02:17:56 10° WNW 02:19:46 13° NW 02:21:39 10° N night (unlit)
10 Mar - 11:10:26 10° N 11:15:15 23° NE 11:20:02 10° E daylight
10 Mar - 12:53:52 10° WNW 13:00:06 66° SW 13:06:05 10° SE daylight
10 Mar - 14:43:25 10° SW 14:44:56 11° SW 14:46:26 10° SSW daylight
10 Mar - 23:36:01 10° SSW 23:39:22 26° SE 23:42:43 10° E night (unlit)
